Preview of NWS' New Version of Forecast
This preview is not operational and should not be used for support decisions.
Latest weather observations around

Fort Smith, Fort Smith Regional Airport (KFSM)

Using English Units (Switch to International System of Units)
Date/ Time (CDT) Wind (mph) Vis. (mi) Weather Sky Cond. Temp (°F) Rel. Humidity Wind Chill (°F) Heat Index (°F) Pressure Precip. (in)
Air Dwpt 6 hour Altimeter (inHg) Sea level (inHg) 1 hr 3 hr 6 hr
Max Min
Jun 18 07:53 SSE 6 10 Mostly Clear FEW040 80 70     71%   83 30.07 30.05      
Jun 18 06:53 SE 3 10 Clear CLR 78 70     76%   79 30.04 30.02      
Jun 18 05:53 E 3 10 Clear CLR 77 69     77%   78 30.02 30      
Jun 18 04:53 SSE 3 10 Clear CLR 78 69     74%   79 30.01 29.99      
Jun 18 03:53 ESE 5 10 Clear CLR 78 71     79%   79 30 29.98      
Jun 18 02:53 SSE 5 10 Clear CLR 82 69     65%   85 30 29.98      
Jun 18 00:53 S 5 10 Clear CLR 83 70     65%   87 30 29.98      
Jun 17 23:53 SSE 9 10 Clear CLR 85 69     59%   89 30 29.98      
Jun 17 22:53 SSE 7 10 Clear CLR 85 68     57%   88 30.01 29.98      
Jun 17 21:53 SE 5 10 Clear CLR 86 68     55%   89 29.99 29.97      
Jun 17 20:53 SE 5 10 Clear CLR 89 68     50%   93 29.97 29.94      
Jun 17 19:53 SE 10 10 Clear CLR 92 67     44%   95 29.95 29.93      
Jun 17 18:53 SE 7 10 Clear CLR 93 67     43%   97 29.95 29.93      
Jun 17 17:53 SE 8 10 Mostly Clear FEW070 95 67     40%   99 29.95 29.93      
Jun 17 16:53 SSE 10 10 Mostly Cloudy FEW065 BKN095 94 67     41%   98 29.96 29.94      
Jun 17 15:53 SE 13 10 Mostly Clear FEW060 96 65     36%   99 29.97 29.95      
Jun 17 14:53 6 10 Partly Cloudy SCT060 SCT080 94 66     40%   97 29.99 29.96      
Jun 17 13:53 S 7 10 Partly Cloudy SCT065 92 67     44%   95 30 29.98      
Jun 17 12:53 SE 6 10 Mostly Cloudy SCT050 BKN060 92 68     46%   96 30.01 29.99      
Jun 17 11:53   10 Clear CLR 90 68     49%   94 30.02 30      
Jun 17 10:53 SSW 11 10 Clear CLR 90 68     49%   94 30.03 30.01      
Jun 17 08:53 SE 7 10 Clear CLR 85 71     63%   90 30.04 30.01      
Jun 17 07:53 ESE 3 10 Clear CLR 81 71     72%   85 30.02 30      
Jun 17 07:18 NE 3 10 Mostly Clear FEW002 80 72     76%   84 30.01        
Jun 17 06:53 ENE 3 10 Clear CLR 77 72     84%   78 30 29.98      
Jun 17 05:53 ENE 3 10 Clear CLR 78 70     76%   79 29.98 29.96      
Jun 17 04:53 ENE 3 10 Clear CLR 78 70     76%   79 29.97 29.94      
Jun 17 02:53 Calm 10 Clear CLR 79 70     74%   82 29.94 29.92      
Jun 17 01:53 Calm 10 Clear CLR 80 69     69%   83 29.94 29.92      
Jun 17 00:53 SSE 3 10 Clear CLR 82 69     65%   85 29.95 29.93      
Jun 16 23:53 SE 5 10 Clear CLR 83 69     63%   87 29.95 29.93      
Jun 16 22:53 SSE 5 10 Clear CLR 84 68     59%   87 29.94 29.92      
Jun 16 21:53 SSE 5 10 Clear CLR 87 67     51%   90 29.92 29.9      
Jun 16 20:53 S 6 10 Clear CLR 89 67     48%   92 29.89 29.87      
Jun 16 19:53 S 7 10 Clear CLR 93 66     41%   96 29.88 29.85      
Jun 16 18:53 S 9 10 Clear CLR 95 65     37%   98 29.87 29.85      
Jun 16 17:53 SW 11 10 Partly Cloudy FEW075 SCT090 97 65     35%   100 29.88 29.86      
Jun 16 16:53 SSW 11 10 Clear CLR 97 65     35%   100 29.88 29.86      
Jun 16 15:53 S 11 10 Partly Cloudy FEW070 SCT110 98 65     34%   101 29.89 29.87      
Jun 16 14:53 SSE 11 10 Partly Cloudy SCT070 96 65     36%   99 29.9 29.88      
Jun 16 13:53 S 11 10 Mostly Clear FEW060 96 65     36%   99 29.92 29.9      
Jun 16 12:53 5 10 Partly Cloudy FEW050 SCT100 93 68     44%   97 29.94 29.91      
Jun 16 11:53 S 8 10 Mostly Cloudy BKN048 91 69     49%   96 29.95 29.93      
Jun 16 10:53 6 10 Clear CLR 89 70     53%   94 29.95 29.93      
Jun 16 09:53 SW 9 10 Partly Cloudy SCT035 87 71     59%   93 29.97 29.94      
Jun 16 07:53 ENE 5 10 Clear CLR 80 71     74%   84 29.96 29.94      
Jun 16 06:53 ENE 5 10 Clear CLR 75 71     88%   76 29.95 29.93      
Jun 16 05:53 ENE 3 10 Clear CLR 75 70     84%   76 29.94 29.92      
Jun 16 04:53 NE 3 10 Clear CLR 75 68     79%   76 29.93 29.91      
Jun 16 02:53 Calm 10 Clear CLR 79 67     67%   80 29.91 29.89      
Jun 16 01:53 SE 3 10 Clear CLR 80 67     64%   82 29.91 29.89      
Jun 16 00:53 SSE 3 10 Clear CLR 81 67     62%   83 29.92 29.9      
Jun 15 23:53 SSE 5 10 Clear CLR 82 67     60%   85 29.93 29.91      
Jun 15 22:53 Calm 10 Clear CLR 83 67     59%   86 29.92 29.9      
Jun 15 21:53 SSE 3 10 Clear CLR 86 67     53%   89 29.9 29.88      
Jun 15 20:53 S 6 10 Clear CLR 88 66     48%   90 29.87 29.85      
Jun 15 19:53 S 6 10 Clear CLR 92 66     43%   95 29.86 29.83      
Jun 15 18:53 S 9 10 Clear CLR 94 65     39%   96 29.84 29.83      
Jun 15 17:53 S 8 10 Clear CLR 94 65     39%   96 29.85 29.83      
Jun 15 16:53 SSW 8 10 Mostly Clear FEW070 FEW090 96 65     36%   99 29.86 29.84      
Jun 15 15:53 ESE 7 10 Mostly Cloudy SCT070 BKN090 95 66     39%   98 29.88 29.86      
Jun 15 14:53 SSW 7 10 Clear CLR 96 67     39%   100 29.9 29.87      
Jun 15 13:53 3 10 Mostly Clear FEW060 94 66     40%   97 29.92 29.89      
Jun 15 12:53 S 8 10 Mostly Cloudy SCT055 BKN065 94 69     45%   99 29.94 29.92      
Jun 15 11:53 S 10 10 Mostly Clear FEW044 92 70     49%   98 29.95 29.93      
Jun 15 10:53 SSW 7 10 Clear CLR 90 70     52%   95 29.96 29.93      
Jun 15 09:53 SW 6 10 Clear CLR 87 69     55%   91 29.96 29.94      
Jun 15 08:53 W 5 10 Clear CLR 85 70     61%   89 29.98 29.95      
Jun 15 07:53 Calm 10 Clear CLR 80 72     76%   84 29.97 29.96      
May 15 01:53 Calm 10 Clear CLR 73 67     81%   74 29.92 29.9      
May 14 11:53 WSW 14 10 Clear CLR 85 67     55%   88 29.98 29.96      
May 13 03:53 ENE 3 9 Clear CLR 66 65     96%     29.98 29.96      
May 12 16:53 S 9 10 Mostly Clear FEW055 86 64     48%   87 29.96 29.93      
May 12 08:53 SSW 7 10 Cloudy OVC043 75 65     71%   76 30.01 30      
May 12 07:53 S 6 10 Clear CLR 73 66     79%   74 29.99 29.97      
May 12 02:53 Calm 10 Clear CLR 71 63     76%   71 29.92 29.9      
May 11 23:53 ESE 6 10 Clear CLR 74 62     66%   74 29.9 29.88      
May 11 22:53 ESE 3 10 Clear CLR 75 62     64%   75 29.9 29.88      
May 11 20:53 S 7 10 Clear CLR 80 61     52%   81 29.85 29.84      
Jun 11 22:53 ENE 6 10 Clear CLR 74 63     69%   74 29.94 29.93      
Jun 11 20:53 Calm 10 Clear CLR 82 61     49%   83 29.91 29.89      
Jun 11 14:53 S 9 10 Partly Cloudy SCT060 88 61     40%   88 29.96 29.94      
Jun 11 08:53 E 6 10 Clear CLR 78 65     64%   79 29.97 29.95      
Jun 10 15:53 SSE 11 10 Cloudy OVC055 85 63     48%   86 29.89 29.87      
Jun 09 01:53 NE 5 10 Clear CLR 64 60     87%     29.92 29.91      
Jun 08 11:53 S 5 10 Clear CLR 79 51     38%   78 30.04 30.02      
Jun 07 08:53 ENE 7 10 Partly Cloudy SCT055 72 55     55%   71 30.02 30      
Jun 06 03:22 Calm 3 Fog/Mist CLR 69 67     93%     29.84